Вернуться в каталог

YUBELEINY 2

АктивенЛюбительское радиоPO
NORAD 38735·PAYLOAD·🇷🇺 Russia

Запущен Jul 28, 2012 с Plesetsk Cosmodrome

Loading…

Ближайшие Пролёты (ближайшие 24 часа)

TLE

СвежийSource: Space-Track

Эпоха: Sep 14, 2026, 13:31 UTC

1 38735U 12041C   26257.56328528  .00000021  00000-0  80971-4 0  9997
2 38735  82.4802  18.9406 0016937 230.4605 129.4978 12.42652110640943

Отслеживайте YUBELEINY 2 в реальном времени с AllMySat

Download on the App Store